| time (UTC) | temp F | wind direction | speed knots | gust knots | rain 1hr in | rain 24hr in | rain mn in | humidity % | barometer mb |
| 20260507083046 | 58 | 278 | 0.0 | 0.0 | 0.00 | 0.00 | 0.00 | 95 | 1016.7 |
| 20260507081537 | 58 | 278 | 0.0 | 0.0 | 0.00 | 0.00 | 0.00 | 95 | 1016.8 |
| 20260507080035 | 58 | 278 | 0.0 | 0.9 | 0.00 | 0.00 | 0.00 | 95 | 1016.8 |
| 20260507074535 | 58 | 278 | 0.0 | 0.0 | 0.00 | 0.00 | 0.00 | 95 | 1016.8 |
| 20260507073033 | 58 | 278 | 0.0 | 0.0 | 0.00 | 0.00 | 0.00 | 95 | 1016.9 |
| 20260507071544 | 58 | 278 | 0.0 | 0.0 | 0.00 | 0.00 | 0.00 | 95 | 1016.9 |
| 20260507070030 | 59 | 278 | 0.0 | 0.0 | 0.00 | 0.00 | 0.00 | 94 | 1016.9 |
| 20260507064528 | 59 | 278 | 0.0 | 0.0 | 0.00 | 0.00 | 0.00 | 94 | 1017.1 |
| 20260507063032 | 60 | 278 | 0.0 | 0.0 | 0.00 | 0.00 | 0.00 | 94 | 1017.1 |
| 20260507061527 | 60 | 278 | 0.0 | 0.0 | 0.00 | 0.00 | 0.00 | 94 | 1017.1 |
| 20260507060025 | 60 | 278 | 0.0 | 0.0 | 0.00 | 0.00 | 0.00 | 93 | 1017.2 |
| 20260507054524 | 60 | 278 | 0.0 | 2.6 | 0.00 | 0.00 | 0.00 | 93 | 1017.1 |
| 20260507053025 | 60 | 283 | 0.9 | 4.3 | 0.00 | 0.00 | 0.00 | 93 | 1017.1 |
| 20260507051524 | 61 | 260 | 0.0 | 6.1 | 0.00 | 0.00 | 0.00 | 93 | 1017.0 |
| 20260507050023 | 61 | 263 | 0.9 | 4.3 | 0.00 | 0.00 | 0.00 | 93 | 1017.0 |
| 20260507044522 | 61 | 288 | 0.9 | 3.5 | 0.00 | 0.00 | 0.00 | 92 | 1017.0 |
| 20260507043031 | 61 | 307 | 1.7 | 6.1 | 0.00 | 0.00 | 0.00 | 91 | 1017.0 |
| 20260507041524 | 61 | 260 | 0.9 | 2.6 | 0.00 | 0.00 | 0.00 | 91 | 1016.8 |
| 20260507040020 | 61 | 257 | 0.9 | 2.6 | 0.00 | 0.00 | 0.00 | 90 | 1016.8 |
| 20260507034520 | 62 | 285 | 1.7 | 3.5 | 0.00 | 0.00 | 0.00 | 89 | 1016.6 |
| 20260507033020 | 62 | 241 | 0.9 | 2.6 | 0.00 | 0.00 | 0.00 | 89 | 1016.4 |
| 20260507031519 | 62 | 283 | 1.7 | 6.1 | 0.00 | 0.00 | 0.00 | 89 | 1016.3 |
| 20260507030019 | 62 | 264 | 0.9 | 6.1 | 0.00 | 0.00 | 0.00 | 89 | 1016.1 |
| 20260507024518 | 62 | 262 | 2.6 | 7.8 | 0.00 | 0.00 | 0.00 | 88 | 1016.0 |
| 20260507023018 | 63 | 257 | 2.6 | 7.8 | 0.00 | 0.00 | 0.00 | 87 | 1015.8 |
| 20260507021517 | 63 | 262 | 2.6 | 7.0 | 0.00 | 0.00 | 0.00 | 85 | 1015.7 |
| 20260507020016 | 64 | 309 | 3.5 | 10.4 | 0.00 | 0.00 | 0.00 | 84 | 1015.6 |
| 20260507014516 | 64 | 293 | 2.6 | 7.8 | 0.00 | 0.00 | 0.00 | 85 | 1015.5 |
| 20260507013014 | 64 | 259 | 3.5 | 12.2 | 0.00 | 0.00 | 0.00 | 85 | 1015.5 |
| 20260507011525 | 65 | 312 | 2.6 | 10.4 | 0.00 | 0.00 | 0.00 | 85 | 1015.5 |
| 20260507010013 | 65 | 255 | 7.0 | 11.3 | 0.00 | 0.00 | 0.00 | 84 | 1015.3 |
| 20260507004517 | 66 | 309 | 6.1 | 12.2 | 0.00 | 0.00 | 0.00 | 83 | 1015.3 |
| 20260507003017 | 66 | 276 | 6.1 | 13.0 | 0.00 | 0.00 | 0.00 | 83 | 1015.4 |
| 20260507001510 | 66 | 274 | 6.1 | 11.3 | 0.00 | 0.00 | 0.00 | 82 | 1015.3 |
| 20260507000009 | 66 | 229 | 5.2 | 13.0 | 0.00 | 0.00 | 0.00 | 82 | 1015.4 |
| 20260506234510 | 66 | 293 | 7.0 | 12.2 | 0.00 | 0.00 | 0.00 | 81 | 1015.3 |
| 20260506233007 | 66 | 254 | 7.0 | 12.2 | 0.00 | 0.00 | 0.00 | 81 | 1015.2 |
| 20260506231505 | 67 | 307 | 7.0 | 13.9 | 0.00 | 0.00 | 0.00 | 78 | 1015.4 |
| 20260506230003 | 67 | 274 | 5.2 | 13.9 | 0.00 | 0.00 | 0.00 | 78 | 1015.6 |
| 20260506224600 | 67 | 242 | 6.1 | 12.2 | 0.00 | 0.00 | 0.00 | 80 | 1015.8 |
| 20260506223058 | 68 | 259 | 6.1 | 10.4 | 0.00 | 0.00 | 0.00 | 79 | 1016.0 |
| 20260506221555 | 67 | 255 | 5.2 | 9.6 | 0.00 | 0.00 | 0.00 | 77 | 1016.1 |
| 20260506214550 | 67 | 285 | 4.3 | 10.4 | 0.00 | 0.00 | 0.00 | 74 | 1016.5 |
| 20260506213050 | 68 | 195 | 4.3 | 9.6 | 0.00 | 0.00 | 0.00 | 72 | 1016.6 |
| 20260506211547 | 69 | 262 | 4.3 | 8.7 | 0.00 | 0.00 | 0.00 | 69 | 1016.7 |
| 20260506210048 | 68 | 259 | 3.5 | 9.6 | 0.00 | 0.00 | 0.00 | 70 | 1016.9 |
| 20260506204543 | 68 | 235 | 5.2 | 9.6 | 0.00 | 0.00 | 0.00 | 68 | 1017.0 |
| 20260506203119 | 68 | 162 | 4.3 | 10.4 | 0.00 | 0.00 | 0.00 | 73 | 1017.0 |
| 20260506201540 | 68 | 162 | 3.5 | 7.8 | 0.00 | 0.00 | 0.00 | 76 | 1017.3 |
| 20260506200047 | 68 | 231 | 4.3 | 9.6 | 0.00 | 0.00 | 0.00 | 76 | 1017.5 |
| 20260506194539 | 68 | 240 | 3.5 | 7.0 | 0.00 | 0.00 | 0.00 | 77 | 1017.5 |
| 20260506193036 | 67 | 256 | 3.5 | 8.7 | 0.00 | 0.00 | 0.00 | 76 | 1017.8 |
| 20260506191536 | 67 | 239 | 3.5 | 9.6 | 0.00 | 0.00 | 0.00 | 77 | 1017.8 |
| 20260506190045 | 67 | 278 | 4.3 | 7.8 | 0.00 | 0.00 | 0.00 | 78 | 1018.1 |
| 20260506184536 | 67 | 152 | 4.3 | 10.4 | 0.00 | 0.00 | 0.00 | 77 | 1018.1 |
| 20260506183033 | 67 | 201 | 2.6 | 7.0 | 0.00 | 0.00 | 0.00 | 77 | 1018.3 |
| 20260506181534 | 67 | 194 | 3.5 | 9.6 | 0.00 | 0.00 | 0.00 | 79 | 1018.3 |
| 20260506180031 | 67 | 206 | 2.6 | 8.7 | 0.00 | 0.00 | 0.00 | 79 | 1018.4 |
| 20260506174531 | 67 | 193 | 2.6 | 7.8 | 0.00 | 0.00 | 0.00 | 78 | 1018.3 |
| 20260506173036 | 67 | 273 | 2.6 | 7.0 | 0.00 | 0.00 | 0.00 | 78 | 1018.2 |
| 20260506164514 | 66 | 162 | 2.6 | 6.1 | 0.00 | 0.00 | 0.00 | 78 | 1018.1 |
| 20260506163022 | 66 | 188 | 2.6 | 6.1 | 0.00 | 0.00 | 0.00 | 77 | 1018.0 |
| 20260506161512 | 66 | 201 | 2.6 | 6.1 | 0.00 | 0.00 | 0.00 | 76 | 1018.0 |
| 20260506160010 | 66 | 142 | 0.9 | 3.5 | 0.00 | 0.00 | 0.00 | 75 | 1018.1 |
| 20260506154525 | 66 | 143 | 0.0 | 2.6 | 0.00 | 0.00 | 0.00 | 78 | 1018.2 |
| 20260506153005 | 65 | 65 | 0.0 | 1.7 | 0.00 | 0.00 | 0.00 | 78 | 1018.2 |
| 20260506151502 | 63 | 122 | 0.9 | 3.5 | 0.00 | 0.00 | 0.00 | 79 | 1018.2 |
| 20260506150100 | 63 | 58 | 0.0 | 3.5 | 0.00 | 0.00 | 0.00 | 80 | 1018.2 |
| 20260506144558 | 62 | 44 | 0.9 | 1.7 | 0.00 | 0.00 | 0.00 | 80 | 1018.2 |
| 20260506143055 | 60 | 44 | 0.9 | 2.6 | 0.00 | 0.00 | 0.00 | 82 | 1018.1 |
| 20260506141552 | 60 | 109 | 0.0 | 0.9 | 0.00 | 0.00 | 0.00 | 84 | 1017.9 |
| 20260506140049 | 58 | 84 | 0.0 | 1.7 | 0.00 | 0.00 | 0.00 | 88 | 1017.9 |
| 20260506134547 | 57 | 93 | 0.0 | 0.9 | 0.00 | 0.00 | 0.00 | 92 | 1017.8 |
| 20260506133048 | 55 | 93 | 0.0 | 0.9 | 0.00 | 0.00 | 0.00 | 94 | 1017.8 |
| 20260506131544 | 53 | 93 | 0.0 | 0.0 | 0.00 | 0.00 | 0.00 | 94 | 1017.6 |
| 20260506130042 | 53 | 93 | 0.0 | 0.0 | 0.00 | 0.00 | 0.00 | 93 | 1017.4 |
| 20260506124544 | 53 | 93 | 0.0 | 0.0 | 0.00 | 0.00 | 0.00 | 93 | 1017.2 |
| 20260506123039 | 54 | 93 | 0.0 | 0.0 | 0.00 | 0.00 | 0.00 | 93 | 1017.1 |
| 20260506121546 | 54 | 93 | 0.0 | 0.0 | 0.00 | 0.00 | 0.00 | 93 | 1017.0 |
| 20260506120040 | 54 | 94 | 0.0 | 0.0 | 0.00 | 0.00 | 0.00 | 93 | 1017.1 |
| 20260506114535 | 55 | 93 | 0.0 | 1.7 | 0.00 | 0.00 | 0.00 | 94 | 1017.0 |
| 20260506113034 | 55 | 110 | 0.0 | 0.9 | 0.00 | 0.00 | 0.00 | 94 | 1016.9 |
| 20260506111535 | 55 | 110 | 0.0 | 0.0 | 0.00 | 0.00 | 0.00 | 94 | 1016.9 |
| 20260506110030 | 55 | 110 | 0.0 | 0.9 | 0.00 | 0.00 | 0.00 | 94 | 1016.9 |
| 20260506104528 | 56 | 110 | 0.0 | 0.0 | 0.00 | 0.00 | 0.00 | 94 | 1017.0 |
| 20260506103027 | 56 | 110 | 0.0 | 0.0 | 0.00 | 0.00 | 0.00 | 93 | 1016.9 |
| 20260506101525 | 57 | 110 | 0.0 | 0.0 | 0.00 | 0.00 | 0.00 | 93 | 1016.9 |
| 20260506100023 | 57 | 110 | 0.0 | 0.9 | 0.00 | 0.00 | 0.00 | 93 | 1016.9 |
| 20260506094521 | 57 | 235 | 0.0 | 0.0 | 0.00 | 0.00 | 0.00 | 93 | 1016.9 |
| 20260506093020 | 57 | 235 | 0.0 | 0.0 | 0.00 | 0.00 | 0.00 | 92 | 1016.9 |
| 20260506091519 | 58 | 235 | 0.0 | 0.0 | 0.00 | 0.00 | 0.00 | 92 | 1017.0 |
| 20260506090016 | 58 | 235 | 0.0 | 0.9 | 0.00 | 0.00 | 0.00 | 92 | 1017.1 |
| 20260506084519 | 58 | 224 | 0.0 | 0.9 | 0.00 | 0.00 | 0.00 | 93 | 1017.2 |